This demonstration page uses our WeatherBlox Daily Observations layout. Learn more.

Left ArrowRight Arrow

Hourly Observations for May 28, 2015

Temp ( °F °C ) Dew Point ( °F °C ) Humidity (%) Winds ( mph kmh ) Pressure ( in mb ) Visibility ( mi km ) Precip ( " mm )
12:53 am 00:53 Clear 74 23.3 65 18.3 74 74 SE 12 19 29.82 1010 10 16 0.00 0.00
1:53 am 01:53 Clear 73 22.8 63 17.2 71 71 SSE 14 22 29.81 1009 10 16 0.00 0.00
2:53 am 02:53 Clear 72 22.2 64 17.8 76 76 SSE 15 24 29.80 1009 10 16 0.00 0.00
3:53 am 03:53 Clear 71 21.7 64 17.8 79 79 SSE 9 15 29.80 1009 10 16 0.00 0.00
4:53 am 04:53 Clear 70 21.1 64 17.8 82 82 SE 8 13 29.80 1009 10 16 0.00 0.00
5:10 am 05:10 Mostly Cloudy 70 21 64 18 83 83 SSE 5 7 29.85 1011 10 16 0.00 0.00
5:53 am 05:53 Cloudy 71 21.7 65 18.3 81 81 SE 10 17 29.83 1010 10 16 0.00 0.00
6:09 am 06:09 Partly Cloudy 71 21.7 65 18.3 81 81 SE 10 17 29.83 1010 10 16 0.00 0.00
6:53 am 06:53 Sunny 70 21.1 65 18.3 84 84 SE 13 20 29.83 1010 10 16 0.00 0.00
7:53 am 07:53 Sunny 72 22.2 66 18.9 82 82 ESE 12 19 29.84 1010 10 16 0.00 0.00
8:53 am 08:53 Sunny 73 22.8 67 19.4 81 81 SE 13 20 29.85 1011 8 13 0.00 0.00
9:49 am 09:49 Mostly Cloudy 77 25 66 19 69 69 SSE 20 31 29.83 1010 10 16 0.00 0.00
9:53 am 09:53 Mostly Cloudy 77 25 67 19.4 71 71 SE 17 28 29.86 1011 10 16 0.00 0.00
10:53 am 10:53 Mostly Cloudy 81 27.2 65 18.3 58 58 SE 16 26 29.85 1011 10 16 0.00 0.00
11:24 am 11:24 Partly Cloudy 82 28 66 19 58 58 SE 15 24 29.83 1010 10 16 0.00 0.00
11:53 am 11:53 Mostly Sunny 84 28.9 66 18.9 55 55 SE 15 24 29.86 1011 10 16 0.00 0.00
12:53 pm 12:53 Mostly Sunny 85 29.4 64 17.8 50 50 S 16 26 29.84 1011 10 16 0.00 0.00
1:42 pm 13:42 Mostly Cloudy with Thunderstorms 82 28 64 18 55 55 SSE 10 17 29.77 1008 10 16 0.00 0.00
1:53 pm 13:53 Mostly Cloudy with Nearby Thunderstorms 85 29.4 64 17.8 50 50 SSE 15 24 29.82 1010 10 16 0.00 0.03
2:16 pm 14:16 Partly Cloudy with Thunderstorms 82 27.8 65 18.3 56 56 S 14 22 29.74 1007 10 16 0.00 0.03
2:48 pm 14:48 Partly Cloudy 77 25 66 19 69 69 SSE 15 24 29.71 1006 10 16 0.00 0.00
2:53 pm 14:53 Mostly Sunny 77 25 66 18.9 69 69 SE 17 28 29.77 1008 10 16 0.00 0.03
3:06 pm 15:06 Sunny with Nearby Thunderstorms 77 25 66 19 69 69 SE 22 35 29.71 1006 10 16 0.00 0.00
3:23 pm 15:23 Sunny 79 26.1 64 17.8 60 60 NW 13 20 29.77 1008 10 16 0.00 0.00
3:35 pm 15:35 Mostly Sunny 79 26.1 63 17.2 58 58 WSW 12 19 29.77 1008 10 16 0.00 0.00
3:53 pm 15:53 Partly Cloudy 78 25.6 62 16.7 58 58 SSE 13 20 29.80 1009 10 16 0.00 0.00
4:00 pm 16:00 Partly Cloudy 79 26 63 17 58 58 SSE 10 17 29.77 1008 10 16 0.00 0.00
4:16 pm 16:16 Partly Cloudy with Nearby Thunderstorms 79 26 55 13 45 45 E 17 28 29.71 1006 10 16 0.00 0.00
4:31 pm 16:31 Mostly Sunny 81 27.2 46 7.8 29 29 E 15 24 29.65 1004 10 16 0.00 0.00
4:53 pm 16:53 Sunny 80 26.7 52 11.1 38 38 WSW 15 24 29.73 1007 10 16 0.00 0.00
5:53 pm 17:53 Mostly Sunny 77 25 58 14.4 52 52 ESE 8 13 29.75 1008 10 16 0.00 0.00
6:53 pm 18:53 undefined 75 23.9 53 11.7 46 46 SSE 9 15 29.72 1007 10 16 0.00 0.00
7:53 pm 19:53 undefined 71 21.7 55 12.8 57 57 S 5 7 29.73 1007 10 16 0.00 0.00
8:53 pm 20:53 Clear 70 21.1 54 12.2 57 57 SSE 6 9 29.73 1007 10 16 0.00 0.00
9:53 pm 21:53 Clear 68 20 54 12.2 61 61 NNE 3 6 29.78 1008 10 16 0.00 0.00
10:53 pm 22:53 Clear 66 18.9 54 12.2 65 65 ENE 8 13 29.83 1010 10 16 0.00 0.00
11:53 pm 23:53 Clear 64 17.8 56 13.3 75 75 NNE 10 17 29.84 1011 10 16 0.00 0.00

Powered by AerisWeather